Torna al catalogo

STARLINK-32227

AttivoComunicazioniVLEO
NORAD 60361·PAYLOAD·🇺🇸 United States

Lanciato Aug 4, 2024 da Vandenberg Space Force Base

Loading…

Prossimi Passaggi (prossime 24 ore)

TLE

AggiornatoSource: CelesTrak SupGP

Epoca: Sep 14, 2026, 21:13 UTC

1 60361C 24138G   26257.88451389 -.00039614  00000+0 -11703-2 0  2577
2 60361  53.1589 150.1711 0001328  81.6487 261.7833 15.34412818    11

Traccia STARLINK-32227 in tempo reale con AllMySat

Download on the App Store